Simultaneous Nadir Overpasses (SNOs) Predictions

Prediction of SNOs between METOP-B and TERRA Satellite Orbit:

Table of predicted SNOs for the next 14.0 days since TLE Epoch: 2/19/2022
Index Date (METOP-B) Time (METOP-B) Lat,Lon (METOP-B) SZA (METOP-B ) Date (TERRA) Time (TERRA) Lat,Lon (TERRA) SZA (TERRA ) Distance(km) Time Diff (sec)
1 02/21/2022 19:24:24 -81.24, 111.89 86.48 02/21/2022 19:25:32 -81.24, 111.82 86.46 1.32 68
2 02/21/2022 20:15:04 81.25, -80.66 93.53 02/21/2022 20:14:58 81.24, -80.47 93.54 3.18 6
3 02/24/2022 14:58:44 -81.25, 178.54 87.47 02/24/2022 14:59:40 -81.25, 178.35 87.47 3.28 56
4 02/24/2022 15:49:24 81.25, -14.04 92.53 02/24/2022 15:49:06 81.25, -13.97 92.53 1.25 18
5 02/27/2022 10:33:06 -81.24,-115.23 88.53 02/27/2022 10:33:49 -81.25,-115.20 88.51 0.63 43
6 02/27/2022 11:23:45 81.26, 52.55 91.52 02/27/2022 11:23:15 81.25, 52.46 91.49 1.73 30
7 03/02/2022 06:07:27 -81.25, -48.65 89.56 03/02/2022 06:07:58 -81.24, -48.82 89.57 2.86 31
8 03/02/2022 06:58:06 81.26, 119.11 90.48 03/02/2022 06:57:23 81.26, 119.19 90.48 1.50 43
9 03/05/2022 01:41:48 -81.25, 17.90 90.60 03/05/2022 01:42:06 -81.26, 17.86 90.60 0.77 18



Historial Predications of SNOs between METOP-B and TERRA
